Simultaneous Nadir Overpasses (SNOs) Predictions

Prediction of SNOs between NOAA-19 and METOP-C Satellite Orbit:

Table of predicted SNOs for the next 14.0 days since TLE Epoch: 7/17/2021
Index Date (NOAA-19) Time (NOAA-19) Lat,Lon (NOAA-19) SZA (NOAA-19 ) Date (METOP-C) Time (METOP-C) Lat,Lon (METOP-C) SZA (METOP-C ) Distance(km) Time Diff (sec)
1 07/20/2021 11:19:16 -80.58,-141.03 118.92 07/20/2021 11:20:28 -80.56,-141.18 118.92 3.27 72
2 07/20/2021 12:10:12 80.58, 26.33 61.09 07/20/2021 12:11:08 80.57, 26.25 61.10 1.45 56
3 07/20/2021 13:01:16 -80.58,-166.43 118.90 07/20/2021 13:01:49 -80.58,-166.34 118.88 1.58 33
4 07/20/2021 13:52:12 80.57, 0.93 61.11 07/20/2021 13:52:30 80.56, 0.76 61.09 3.28 18
5 07/20/2021 14:43:16 -80.57, 168.18 118.88 07/20/2021 14:43:11 -80.57, 168.17 118.89 0.62 5
6 07/20/2021 15:34:12 80.57, -24.47 61.13 07/20/2021 15:33:51 80.57, -24.39 61.13 1.52 21
7 07/20/2021 16:25:16 -80.57, 142.79 118.87 07/20/2021 16:24:33 -80.56, 142.68 118.90 2.33 43



Historial Predications of SNOs between NOAA-19 and METOP-C
